Time,TemperatureF,DewpointF,PressureIn,WindDirection,WindDirectionDegrees,WindSpeedMPH,WindSpeedGustMPH,Humidity,HourlyPrecipIn,Conditions,Clouds,dailyrainin,SoftwareType,DateUTC
2013-06-29 00:04:00,60.0,51.7,29.91,WSW,247,0.0,9.0,74,0.00,,,0.00,Weather View 32 v70,2013-06-29 07:04:00,
2013-06-29 00:07:00,60.0,51.7,29.91,WSW,247,0.0,9.0,74,0.00,,,0.00,Weather View 32 v70,2013-06-29 07:07:00,
2013-06-29 00:09:00,60.0,51.7,29.91,WSW,247,0.0,9.0,74,0.00,,,0.00,Weather View 32 v70,2013-06-29 07:09:00,
2013-06-29 00:14:00,60.0,51.7,29.91,WSW,247,0.0,9.0,74,0.00,,,0.00,Weather View 32 v70,2013-06-29 07:14:00,
2013-06-29 00:19:00,60.0,51.7,29.91,WSW,247,0.0,9.0,74,0.00,,,0.00,Weather View 32 v70,2013-06-29 07:19:00,
2013-06-29 00:24:00,60.0,51.7,29.92,WSW,247,0.0,0.0,74,0.00,,,0.00,Weather View 32 v70,2013-06-29 07:24:00,
2013-06-29 00:29:00,60.0,51.7,29.91,WSW,247,0.0,0.0,74,0.00,,,0.00,Weather View 32 v70,2013-06-29 07:29:00,
2013-06-29 00:34:00,61.0,53.4,29.91,WSW,247,0.0,0.0,76,0.00,,,0.00,Weather View 32 v70,2013-06-29 07:34:00,
2013-06-29 00:39:00,61.0,52.3,29.91,WSW,247,0.0,0.0,73,0.00,,,0.00,Weather View 32 v70,2013-06-29 07:39:00,
2013-06-29 00:44:00,61.0,52.3,29.91,WSW,247,0.0,0.0,73,0.00,,,0.00,Weather View 32 v70,2013-06-29 07:44:00,
2013-06-29 00:49:00,61.0,52.3,29.91,WSW,247,0.0,0.0,73,0.00,,,0.00,Weather View 32 v70,2013-06-29 07:49:00,
2013-06-29 00:54:00,60.0,51.3,29.91,WSW,247,0.0,0.0,73,0.00,,,0.00,Weather View 32 v70,2013-06-29 07:54:00,
2013-06-29 00:59:00,60.0,51.3,29.91,WSW,247,0.0,0.0,73,0.00,,,0.00,Weather View 32 v70,2013-06-29 07:59:00,
2013-06-29 01:04:00,60.0,51.7,29.91,WSW,247,0.0,0.0,74,0.00,,,0.00,Weather View 32 v70,2013-06-29 08:04:00,
2013-06-29 01:07:00,60.0,51.7,29.91,WSW,247,0.0,0.0,74,0.00,,,0.00,Weather View 32 v70,2013-06-29 08:07:00,
2013-06-29 01:09:00,60.0,52.4,29.91,WSW,247,0.0,0.0,76,0.00,,,0.00,Weather View 32 v70,2013-06-29 08:09:00,
2013-06-29 01:14:00,60.0,51.7,29.91,WSW,247,0.0,0.0,74,0.00,,,0.00,Weather View 32 v70,2013-06-29 08:14:00,
2013-06-29 01:19:00,60.0,51.7,29.91,WSW,247,0.0,0.0,74,0.00,,,0.00,Weather View 32 v70,2013-06-29 08:19:00,
2013-06-29 01:24:00,59.0,50.7,29.90,WSW,247,0.0,0.0,74,0.00,,,0.00,Weather View 32 v70,2013-06-29 08:24:00,
2013-06-29 01:29:00,60.0,51.7,29.90,WSW,247,0.0,0.0,74,0.00,,,0.00,Weather View 32 v70,2013-06-29 08:29:00,
2013-06-29 01:34:00,60.0,51.7,29.90,WSW,247,0.0,0.0,74,0.00,,,0.00,Weather View 32 v70,2013-06-29 08:34:00,
2013-06-29 01:39:00,60.0,51.7,29.90,WSW,247,0.0,0.0,74,0.00,,,0.00,Weather View 32 v70,2013-06-29 08:39:00,
2013-06-29 01:44:00,60.0,52.4,29.90,WSW,247,0.0,0.0,76,0.00,,,0.00,Weather View 32 v70,2013-06-29 08:44:00,
2013-06-29 01:49:00,60.0,51.7,29.90,WSW,247,0.0,0.0,74,0.00,,,0.00,Weather View 32 v70,2013-06-29 08:49:00,
2013-06-29 01:54:00,59.0,50.7,29.90,WSW,247,0.0,0.0,74,0.00,,,0.00,Weather View 32 v70,2013-06-29 08:54:00,
2013-06-29 01:59:00,59.0,51.1,29.91,WSW,247,0.0,0.0,75,0.00,,,0.00,Weather View 32 v70,2013-06-29 08:59:00,
2013-06-29 02:04:00,59.0,50.7,29.91,WSW,247,0.0,0.0,74,0.00,,,0.00,Weather View 32 v70,2013-06-29 09:04:00,
2013-06-29 02:08:00,59.0,50.7,29.91,WSW,247,0.0,0.0,74,0.00,,,0.00,Weather View 32 v70,2013-06-29 09:08:00,
2013-06-29 02:14:00,59.0,51.1,29.91,WSW,247,0.0,0.0,75,0.00,,,0.00,Weather View 32 v70,2013-06-29 09:14:00,
2013-06-29 02:19:00,59.0,51.8,29.91,WSW,247,0.0,0.0,77,0.00,,,0.00,Weather View 32 v70,2013-06-29 09:19:00,
2013-06-29 02:24:00,59.0,51.1,29.91,WSW,247,0.0,0.0,75,0.00,,,0.00,Weather View 32 v70,2013-06-29 09:24:00,
2013-06-29 02:29:00,60.0,51.7,29.89,WSW,247,0.0,0.0,74,0.00,,,0.00,Weather View 32 v70,2013-06-29 09:29:00,
2013-06-29 02:34:00,61.0,52.3,29.89,WSW,247,0.0,0.0,73,0.00,,,0.00,Weather View 32 v70,2013-06-29 09:34:00,
2013-06-29 02:39:00,61.0,52.3,29.89,WSW,247,0.0,0.0,73,0.00,,,0.00,Weather View 32 v70,2013-06-29 09:39:00,
2013-06-29 02:44:00,60.0,51.3,29.89,WSW,247,0.0,0.0,73,0.00,,,0.00,Weather View 32 v70,2013-06-29 09:44:00,
2013-06-29 02:49:00,60.0,51.7,29.89,WSW,247,0.0,0.0,74,0.00,,,0.00,Weather View 32 v70,2013-06-29 09:49:00,
2013-06-29 02:54:00,60.0,52.8,29.89,WSW,247,0.0,0.0,77,0.00,,,0.00,Weather View 32 v70,2013-06-29 09:54:00,
2013-06-29 02:59:00,59.0,50.7,29.89,WSW,247,0.0,0.0,74,0.00,,,0.00,Weather View 32 v70,2013-06-29 09:59:00,
2013-06-29 03:04:00,60.0,52.0,29.89,WSW,247,0.0,0.0,75,0.00,,,0.00,Weather View 32 v70,2013-06-29 10:04:00,
2013-06-29 03:08:00,60.0,52.0,29.89,WSW,247,0.0,0.0,75,0.00,,,0.00,Weather View 32 v70,2013-06-29 10:08:00,
2013-06-29 03:09:00,60.0,52.0,29.89,SW,225,0.0,0.0,75,0.00,,,0.00,Weather View 32 v70,2013-06-29 10:09:00,
2013-06-29 03:14:00,60.0,51.7,29.89,WSW,247,0.0,2.0,74,0.00,,,0.00,Weather View 32 v70,2013-06-29 10:14:00,
2013-06-29 03:19:00,60.0,51.7,29.89,SW,225,0.0,2.0,74,0.00,,,0.00,Weather View 32 v70,2013-06-29 10:19:00,
2013-06-29 03:24:00,60.0,51.7,29.89,SW,225,0.0,2.0,74,0.00,,,0.00,Weather View 32 v70,2013-06-29 10:24:00,
2013-06-29 03:29:00,60.0,52.4,29.89,SW,225,0.0,3.0,76,0.00,,,0.00,Weather View 32 v70,2013-06-29 10:29:00,
2013-06-29 03:34:00,60.0,51.7,29.89,SW,225,1.0,4.0,74,0.00,,,0.00,Weather View 32 v70,2013-06-29 10:34:00,
2013-06-29 03:39:00,60.0,51.7,29.89,WSW,247,1.0,7.0,74,0.00,,,0.00,Weather View 32 v70,2013-06-29 10:39:00,
2013-06-29 03:44:00,60.0,51.7,29.89,WSW,247,1.0,7.0,74,0.00,,,0.00,Weather View 32 v70,2013-06-29 10:44:00,
2013-06-29 03:49:00,60.0,51.7,29.89,WSW,247,0.0,7.0,74,0.00,,,0.00,Weather View 32 v70,2013-06-29 10:49:00,
2013-06-29 03:54:00,59.0,50.7,29.89,WSW,247,5.0,7.0,74,0.00,,,0.00,Weather View 32 v70,2013-06-29 10:54:00,
2013-06-29 03:59:00,59.0,50.7,29.89,SW,225,0.0,7.0,74,0.00,,,0.00,Weather View 32 v70,2013-06-29 10:59:00,
2013-06-29 04:04:00,59.0,51.8,29.90,WSW,247,0.0,7.0,77,0.00,,,0.00,Weather View 32 v70,2013-06-29 11:04:00,
2013-06-29 04:09:00,59.0,50.7,29.90,WSW,247,1.0,7.0,74,0.00,,,0.00,Weather View 32 v70,2013-06-29 11:09:00,
2013-06-29 04:14:00,59.0,50.7,29.90,SW,225,5.0,7.0,74,0.00,,,0.00,Weather View 32 v70,2013-06-29 11:14:00,
2013-06-29 04:19:00,59.0,51.1,29.90,SW,225,1.0,7.0,75,0.00,,,0.00,Weather View 32 v70,2013-06-29 11:19:00,
2013-06-29 04:24:00,59.0,51.1,29.90,SW,225,3.0,7.0,75,0.00,,,0.00,Weather View 32 v70,2013-06-29 11:24:00,
2013-06-29 04:29:00,59.0,51.1,29.90,WSW,247,4.0,7.0,75,0.00,,,0.00,Weather View 32 v70,2013-06-29 11:29:00,
2013-06-29 04:39:00,59.0,51.8,29.90,WSW,247,0.0,7.0,77,0.00,,,0.00,Weather View 32 v70,2013-06-29 11:39:00,
2013-06-29 04:44:00,59.0,51.1,29.90,WSW,247,0.0,7.0,75,0.00,,,0.00,Weather View 32 v70,2013-06-29 11:44:00,
2013-06-29 04:49:00,59.0,50.7,29.90,SW,225,0.0,7.0,74,0.00,,,0.00,Weather View 32 v70,2013-06-29 11:49:00,
2013-06-29 04:54:00,59.0,51.1,29.90,WSW,247,0.0,7.0,75,0.00,,,0.00,Weather View 32 v70,2013-06-29 11:54:00,
2013-06-29 04:59:00,59.0,50.7,29.90,WSW,247,0.0,7.0,74,0.00,,,0.00,Weather View 32 v70,2013-06-29 11:59:00,
2013-06-29 05:04:00,59.0,50.7,29.90,SW,225,0.0,7.0,74,0.00,,,0.00,Weather View 32 v70,2013-06-29 12:04:00,
2013-06-29 05:09:00,59.0,50.7,29.90,SW,225,0.0,7.0,74,0.00,,,0.00,Weather View 32 v70,2013-06-29 12:09:00,
2013-06-29 05:14:00,59.0,51.4,29.90,SW,225,0.0,7.0,76,0.00,,,0.00,Weather View 32 v70,2013-06-29 12:14:00,
2013-06-29 05:19:00,58.0,49.7,29.90,SW,225,0.0,7.0,74,0.00,,,0.00,Weather View 32 v70,2013-06-29 12:19:00,
2013-06-29 05:24:00,59.0,50.3,29.90,SW,225,0.0,7.0,73,0.00,,,0.00,Weather View 32 v70,2013-06-29 12:24:00,
2013-06-29 05:29:00,59.0,49.2,29.90,SW,225,0.0,5.0,70,0.00,,,0.00,Weather View 32 v70,2013-06-29 12:29:00,
2013-06-29 05:34:00,59.0,46.8,29.90,SW,225,0.0,5.0,64,0.00,,,0.00,Weather View 32 v70,2013-06-29 12:34:00,
2013-06-29 05:39:00,59.0,46.8,29.90,SW,225,0.0,5.0,64,0.00,,,0.00,Weather View 32 v70,2013-06-29 12:39:00,
2013-06-29 05:44:00,58.0,45.4,29.90,SW,225,0.0,3.0,63,0.00,,,0.00,Weather View 32 v70,2013-06-29 12:44:00,
2013-06-29 05:49:00,58.0,44.2,29.90,SW,225,0.0,3.0,60,0.00,,,0.00,Weather View 32 v70,2013-06-29 12:49:00,
2013-06-29 05:54:00,58.0,45.0,29.90,SW,225,0.0,2.0,62,0.00,,,0.00,Weather View 32 v70,2013-06-29 12:54:00,
2013-06-29 05:59:00,58.0,44.6,29.90,SW,225,0.0,2.0,61,0.00,,,0.00,Weather View 32 v70,2013-06-29 12:59:00,
2013-06-29 06:04:00,58.0,44.6,29.90,WSW,247,0.0,2.0,61,0.00,,,0.00,Weather View 32 v70,2013-06-29 13:04:00,
2013-06-29 06:09:00,59.0,45.1,29.90,WSW,247,0.0,2.0,60,0.00,,,0.00,Weather View 32 v70,2013-06-29 13:09:00,
2013-06-29 06:10:00,59.0,45.1,29.90,WSW,247,0.0,2.0,60,0.00,,,0.00,Weather View 32 v70,2013-06-29 13:10:00,
2013-06-29 06:14:00,59.0,44.7,29.90,WSW,247,0.0,2.0,59,0.00,,,0.00,Weather View 32 v70,2013-06-29 13:14:00,
2013-06-29 06:19:00,59.0,44.2,29.89,WSW,247,0.0,2.0,58,0.00,,,0.00,Weather View 32 v70,2013-06-29 13:19:00,
2013-06-29 06:24:00,59.0,-41.7,29.89,WSW,247,0.0,2.0,1,0.00,,,0.00,Weather View 32 v70,2013-06-29 13:24:00,
2013-06-29 06:29:00,60.0,43.7,29.89,WSW,247,0.0,2.0,55,0.00,,,0.00,Weather View 32 v70,2013-06-29 13:29:00,
2013-06-29 06:34:00,61.0,44.2,29.89,WSW,247,0.0,0.0,54,0.00,,,0.00,Weather View 32 v70,2013-06-29 13:34:00,
2013-06-29 06:39:00,61.0,43.7,29.89,WSW,247,0.0,0.0,53,0.00,,,0.00,Weather View 32 v70,2013-06-29 13:39:00,
2013-06-29 06:44:00,62.0,44.6,29.89,WSW,247,0.0,0.0,53,0.00,,,0.00,Weather View 32 v70,2013-06-29 13:44:00,
2013-06-29 06:49:00,63.0,45.1,29.88,WSW,247,0.0,0.0,52,0.00,,,0.00,Weather View 32 v70,2013-06-29 13:49:00,
2013-06-29 06:54:00,64.0,45.5,29.88,WSW,247,0.0,0.0,51,0.00,,,0.00,Weather View 32 v70,2013-06-29 13:54:00,
2013-06-29 06:59:00,65.0,-38.1,29.87,WSW,247,0.0,0.0,1,0.00,,,0.00,Weather View 32 v70,2013-06-29 13:59:00,
2013-06-29 07:04:00,65.0,45.3,29.87,WSW,247,0.0,0.0,49,0.00,,,0.00,Weather View 32 v70,2013-06-29 14:04:00,
2013-06-29 07:09:00,65.0,45.9,29.87,WSW,247,0.0,0.0,50,0.00,,,0.00,Weather View 32 v70,2013-06-29 14:09:00,
2013-06-29 07:11:00,65.0,45.9,29.87,WSW,247,0.0,0.0,50,0.00,,,0.00,Weather View 32 v70,2013-06-29 14:11:00,
2013-06-29 07:14:00,66.0,46.2,29.87,SW,225,0.0,0.0,49,0.00,,,0.00,Weather View 32 v70,2013-06-29 14:14:00,
2013-06-29 07:19:00,67.0,47.2,29.87,SW,225,0.0,0.0,49,0.00,,,0.00,Weather View 32 v70,2013-06-29 14:19:00,
2013-06-29 07:24:00,68.0,48.1,29.87,SW,225,0.0,0.0,49,0.00,,,0.00,Weather View 32 v70,2013-06-29 14:24:00,
2013-06-29 07:29:00,69.0,48.4,29.87,SW,225,0.0,0.0,48,0.00,,,0.00,Weather View 32 v70,2013-06-29 14:29:00,
2013-06-29 07:34:00,70.0,-35.1,29.86,SW,225,0.0,0.0,1,0.00,,,0.00,Weather View 32 v70,2013-06-29 14:34:00,
2013-06-29 07:39:00,70.0,48.8,29.86,SW,225,6.0,7.0,47,0.00,,,0.00,Weather View 32 v70,2013-06-29 14:39:00,
2013-06-29 07:44:00,69.0,47.9,29.86,SW,225,3.0,7.0,47,0.00,,,0.00,Weather View 32 v70,2013-06-29 14:44:00,
2013-06-29 07:49:00,68.0,47.5,29.88,SW,225,0.0,7.0,48,0.00,,,0.00,Weather View 32 v70,2013-06-29 14:49:00,
2013-06-29 07:54:00,68.0,47.0,29.88,SW,225,0.0,7.0,47,0.00,,,0.00,Weather View 32 v70,2013-06-29 14:54:00,
2013-06-29 07:59:00,69.0,47.9,29.88,SW,225,0.0,7.0,47,0.00,,,0.00,Weather View 32 v70,2013-06-29 14:59:00,
2013-06-29 08:04:00,69.0,47.9,29.87,WSW,247,0.0,7.0,47,0.00,,,0.00,Weather View 32 v70,2013-06-29 15:04:00,
2013-06-29 08:09:00,70.0,-35.1,29.86,SW,225,0.0,7.0,1,0.00,,,0.00,Weather View 32 v70,2013-06-29 15:09:00,
2013-06-29 08:11:00,70.0,-35.1,29.86,SW,225,0.0,7.0,1,0.00,,,0.00,Weather View 32 v70,2013-06-29 15:11:00,
2013-06-29 08:14:00,71.0,49.7,29.86,SW,225,0.0,7.0,47,0.00,,,0.00,Weather View 32 v70,2013-06-29 15:14:00,
2013-06-29 08:19:00,72.0,50.0,29.85,WSW,247,0.0,7.0,46,0.00,,,0.00,Weather View 32 v70,2013-06-29 15:19:00,
2013-06-29 08:24:00,73.0,50.9,29.85,SW,225,0.0,7.0,46,0.00,,,0.00,Weather View 32 v70,2013-06-29 15:24:00,
2013-06-29 08:29:00,74.0,51.8,29.85,SW,225,0.0,7.0,46,0.00,,,0.00,Weather View 32 v70,2013-06-29 15:29:00,
2013-06-29 08:30:00,74.0,51.8,29.85,SW,225,0.0,7.0,46,0.00,,,0.00,Weather View 32 v70,2013-06-29 15:30:00,